Location: Trebic
(49.2170°N, 15.8830°E)
Time: 02:09:06
(UTC+02:00)

Transit 2A Rocket - Pass Details

Date: 24 July 2019
Orbit: 590 x 913 km, 66.7° (Epoch: 21 August)

Event Time Altitude Azimuth Distance (km) Brightness Sun altitude
Rises 06:59:43 0° 292° (WNW) 3,415 7.9 14.4°
Reaches altitude 10° 07:03:45 10° 319° (NW) 2,410 7.4 15.1°
Maximum altitude 07:06:19 13° 346° (NNW) 2,143 7.4 15.5°
Drops below altitude 10° 07:08:48 10° 14° (NNE) 2,310 7.9 15.9°
Sets 07:12:30 0° 42° (NE) 3,154 9.1 16.5°
